STARLINK-34246

Last updated on Sat Jul 19 2025 00:02:09 GMT+0000 (Coordinated Universal Time)

1 64769U 25147Q 25199.58335648 -.01577430 00000+0 -10965-1 0 9999 2 64769 53.1571 256.8346 0000893 85.2940 338.7375 15.76857153 2813
UTC large
Height (km)
Speed (km/s)
/
Latitude / Longitude
Inclination (degrees)
Orbital Period (minutes)
Azimuth
Elevation
Range (km)
Doppler Factor

Next 0 passes for location: London (51.5072 / 0.1276)

Sorry there are no passes over London.